Погода в Ланкаране

Погода в Ланкаране : погода сейчас, прогноз погоды и архив. Всё, что Вы хотите узнать о погоде в Ланкаране!

Поиск расширенной информации на нашем сайте:

Другие новости

Новости СМИ2

Главная страница сайта

Новости сайта

03.07.2017

Напоминаем, что на нашем специализированном сайте Метеоцентр.Азия вы можете получить высокодетализированные автоматические прогнозы погоды по пунктам России, СНГ и мира в авиационном формате (включающие направление и скорость ветра, видимость, явления погоды, количество и форму облачности, нижнюю и верхнюю границу облачности).

Рекомендуем: Brady хочет познакомиться - brady tls2200.

Погода в Ланкаране - сегодня

Время (UTC), дата Ветер
(°,м/с) 
Видим.   Явления Облачность Т
(°С)
Тd
(°С)
f(%) Тe
(°С)
Pmin
(гПа)
dP
(гПа)
Po
(мм)
O2
(г/м3)
Тmin Tmax R s Состояние
почвы
12 11.12.17 090 (В) 4000 м    10/10 600 м 
[Sc]
+11.1 +6.6 74 +12  1021  0.2  767  296           
15 11.12.17 110 (В) 4000 м    ясно 
+7.1 +5.1 87 +8  1025.7  4.7  770  302           
18 11.12.17 180 (Ю) 4000 м    ясно 
+5.7 +4.1 89 +7  1028.7  773  304    +12       
21 11.12.17 290 (З) 4000 м    10/10 600 м 
[Sc]
+6 +4.6 91 +7  1030.9  2.2  774  305           
00 12.12.17 180 (Ю) 4000 м    ясно 
+4.7 +3.7 93 +6  1030.3  -0.6  774  306           
03 12.12.17 200 (Ю) 4000 м    ясно 
+4.4 +2.4 87 +5  1029.6  -0.7  773  306           
06 12.12.17 тихо ()   20000 м    4/4 600 м средняя 
[Sc|Ac lent]
+8.7 +4.1 73 +9  1029.7  0.1  773  301  +0.3      влажная 
09 12.12.17 360 (С) 20000 м    3/0 средняя 
[Ac lent]
+12.2 +6.8 70 +13  1028.8  -0.9  773  297           
12 12.12.17 090 (В) 20000 м    3/0 средняя 
[Ac lent]
+11 +7 76 +12  1027.3  -1.5  772  298           
15 12.12.17 250 (З) 4000 м    ясно 
+6.9 +6.5 97 +8  1028  0.7  772  302           
18 12.12.17 180 (Ю) 4000 м    3/0 средняя 
[Ac lent]
+4.1 +3.9 99 +5  1028.1  0.1  772  306    +12.6       
21 12.12.17 тихо ()   4000 м    6/0 средняя 
[Ac lent]
+3.9 +3.4 97 +4  1028  -0.1  772  306           
00 13.12.17 230 (ЮЗ) 4000 м    6/0 средняя 
[Ac lent]
+4.3 +3.8 97 +5  1027.4  -0.6  772  306           
03 13.12.17 270 (З) 4000 м    8/8 600 м 
[Sc]
+5.2 +4.7 97 +6  1027.4  772  304           
06 13.12.17 340 (С) 4000 м    8/8 600 м средняя 
[Sc|Ac lent]
+7.2 +6.1 93 +8  1027.9  0.5  772  302  +4.2      влажная 
09 13.12.17 360 (С) 4000 м    8/8 600 м средняя 
[Sc|Ac lent]
+10.2 +7.6 84 +11  1026.9  -1  771  298           
12 13.12.17 020 (С) 4000 м    10/10 600 м 
[Sc]
+10.3 +7 80 +11  1025.6  -1.3  770  298           
15 13.12.17 360 (С) 4000 м    8/8 600 м средняя 
[Sc|Ac lent]
+9.2 +7.1 87 +10  1025.6  770  299           
18 13.12.17 320 (СЗ) 4000 м    10/10 600 м 
[Sc]
+8.6 +6.8 88 +10  1025.8  0.2  770  300    +10.7       
21 13.12.17 340 (С) 4000 м    10/10 600 м 
[Sc]
+7.9 +6.1 88 +9  1024.8  -1  770  300           
00 14.12.17 340 (С) 4000 м    10/10 600 м 
[Sc]
+7.9 +5.9 87 +9  1024.4  -0.4  769  300           
03 14.12.17 340 (С) 4000 м    10/10 600 м 
[Sc]
+7.2 +5.6 90 +8  1024.1  -0.3  769  301           
06 14.12.17 320 (СЗ) 4000 м    10/10 600 м 
[Sc]
+8.1 +5.6 84 +9  1024.6  0.5  770  300  +3.9      влажная 
09 14.12.17 340 (С) 4000 м    9/9 600 м средняя 
[Sc|Ac lent]
+10.1 +6.2 77 +10  1023.2  -1.4  769  298           
12 14.12.17 360 (С) 4000 м    8/8 600 м средняя 
[Sc|Ac lent]
+9.7 +5.8 77 +11  1021.8  -1.4  767  298           
Время (UTC), дата Ветер
(°,м/с) 
Видим.   Явления Облачность Т
(°С)
Тd
(°С)
f(%) Тe
(°С)
Pmin
(гПа)
dP
(гПа)
Po
(мм)
O2
(г/м3)
Тmin Tmax R s Состояние
почвы

Для получения пояснительной информации подведите курсор к названию столбца.

ПОГОДА в Ланкаране - архив

Всё, что Вы хотите узнать о погоде в Ланкаране - удобно и подробно!

Выберите нужную дату (начиная с 1 января 2015* года) и нажмите кнопку "Найти".
Будут отображены архивные сводки погоды по пункту Ланкаран, начиная с указанной даты.


Отображать данные в формате CSV (для использования в таблицах Excel)


Внимание! Наш архив погоды предназначен исключительно для личного некоммерческого использования в познавательных целях. Если Вам необходимы официальные справки о состоянии погоды (для производственных, юридических, коммерческих и т.п. целей), обращайтесь в органы Росгидромета.

*Примечание: данная дата относится к архиву по метеостанциям СССР (Россия, СНГ, Балтия).
Архив по метеостанциям Зарубежной Европы и Азии (кроме Китая) хранится 10 дней, по другим регионам земного шара (Китай, Африка, Америка, Австралия, Океания) - 1 день.

Ланкаран - район местоположения метеостанции


Название, широта, долгота, высота метеостанции:
Ланкаран (аэропорт) 38.7°ш. 48.8°д. -12 м над ур. моря [Азербайджан]

Дополнительная информация

В oтличие oт бoльшинства пoгoдных сайтoв мы публикуем пoдрoбную метеoинфoрмацию в детальнoм прoфессиoнальнoм фoрмате.

Характеристики температуры и влажнoсти вoздуха измеряются на высoте 2 м в тени вдали oт зданий и деревьев.
Скoрoсть ветра измеряется на высoте 10 м (на урoвне рoста челoвека скoрoсть ветра ниже в 1.5-2 раза). Если метеoстанция нахoдится в гoрoде или в лесу, тo скoрoсть ветра занижена на 2-4 м/с пo сравнению с oткрытым местoм. Скoрoсть ветра над акватoриями крупных рек и oзёр, а также на вершинах хoлмoв на 2-5 м/с выше, чем в oбычных услoвиях.
Атмoсфернoе давление в разных тoчках местнoсти мoжет значительнo oтличаться oт давления на метеoстанции, в зависимoсти oт услoвий рельефа (при пoдъёме на 10 м давление пoнижается примернo на 1 мм рт.ст.).